This is the latest recevied weather packets stored in our database for station/object KR4DFQ. If no packets are shown the sender has not sent any weather packets the latest 10 day(s).
| Time | Temp. | Humidity | Pressure | Rain* | Wind** | Luminosity | Snow |
|---|---|---|---|---|---|---|---|
| 1787581213 | 33.33° C | 60% | 1018.2 hPa | 0 mm | - | 252 W/m² | - |
| 1787580908 | 32.78° C | 60% | 1018.3 hPa | 0 mm | - | 945 W/m² | - |
| 1787580605 | 32.78° C | 64% | 1018.4 hPa | 0 mm | - | 953 W/m² | - |
| 1787580299 | 32.22° C | 65% | 1018 hPa | 0 mm | - | 900 W/m² | - |
| 1787579995 | 32.22° C | 65% | 1018.2 hPa | 0 mm | - | 458 W/m² | - |
| 1787579694 | 32.22° C | 65% | 1018 hPa | 0 mm | - | 915 W/m² | - |
| 1787579390 | 32.22° C | 64% | 1018.2 hPa | 0 mm | - | 582 W/m² | - |
| 1787579084 | 32.22° C | 65% | 1018.3 hPa | 0 mm | - | 288 W/m² | - |
| 1787578780 | 32.22° C | 67% | 1018.1 hPa | 0 mm | - | 128 W/m² | - |
| 1787578476 | 31.67° C | 68% | 1018 hPa | 0 mm | - | 168 W/m² | - |
| 1787578175 | 32.22° C | 67% | 1018.1 hPa | 0 mm | - | 149 W/m² | - |
| 1787577870 | 31.67° C | 68% | 1017.9 hPa | 0 mm | - | 135 W/m² | - |
| 1787577566 | 31.11° C | 71% | 1017.8 hPa | 0 mm | - | 125 W/m² | - |
| 1787577262 | 30.56° C | 75% | 1017.9 hPa | 0 mm | - | 120 W/m² | - |
| 1787576958 | 30.56° C | 75% | 1017.8 hPa | 0 mm | - | 115 W/m² | - |
| 1787576658 | 30.56° C | 73% | 1017.9 hPa | 0 mm | - | 111 W/m² | - |
| 1787576354 | 30.56° C | 76% | 1017.8 hPa | 0 mm | - | 108 W/m² | - |
| 1787576049 | 30° C | 74% | 1017.8 hPa | 0 mm | - | 109 W/m² | - |
| 1787575744 | 30° C | 79% | 1017.8 hPa | 0 mm | - | 111 W/m² | - |
| 1787575441 | 30° C | 79% | 1017.7 hPa | 0 mm | - | 117 W/m² | - |
| 1787575136 | 29.44° C | 78% | 1017.7 hPa | 0 mm | - | 123 W/m² | - |
| 1787574836 | 29.44° C | 82% | 1017.6 hPa | 0 mm | - | 125 W/m² | - |
| 1787574536 | 29.44° C | 82% | 1017.4 hPa | 0 mm | - | 136 W/m² | - |
| 1787574235 | 28.89° C | 83% | 1017.5 hPa | 0 mm | - | 131 W/m² | - |
| 1787573930 | 28.33° C | 84% | 1017.4 hPa | 0 mm | - | 124 W/m² | - |
* Rain latest hour (hover to see other rain measurements)
** Current wind speed in m/s (hover to see current wind gust speed)